• In Czech Republic
  • List of Countries
  • For 7 days
  • Water Temperature
  • Satellite Maps
  • Weather Map
  • Weather Widgets
  • user-avatar
    Login

    Hourly Weather Rokszyce

    Today, 24 June, Sunday

    Time Temperature Precipitation Wind Pressure Humidity
    00:00 +8°C° 0 mm 3 mps 740 mmHg 94%
    01:00 +7°C° 0 mm 3 mps 740 mmHg 94%
    02:00 +7°C° 0 mm 2 mps 739 mmHg 95%
    03:00 +7°C° 0 mm 2 mps 739 mmHg 95%
    04:00 +7°C° 0 mm 2 mps 739 mmHg 95%
    05:00 +7°C° 0 mm 3 mps 739 mmHg 95%
    06:00 +9°C° 0 mm 3 mps 739 mmHg 91%
    07:00 +11°C° 0 mm 4 mps 739 mmHg 87%
    08:00 +12°C° 0 mm 4 mps 739 mmHg 82%
    09:00 +13°C° 0.3 mm 4 mps 739 mmHg 79%
    10:00 +14°C° 0.3 mm 4 mps 739 mmHg 76%
    11:00 +15°C° 0.3 mm 4 mps 739 mmHg 72%
    12:00 +15°C° 0.5 mm 4 mps 739 mmHg 73%
    13:00 +17°C° 0.5 mm 4 mps 739 mmHg 74%
    14:00 +17°C° 0.5 mm 4 mps 739 mmHg 76%
    15:00 +17°C° 0.5 mm 4 mps 739 mmHg 76%
    16:00 +17°C° 0.5 mm 4 mps 739 mmHg 77%
    17:00 +17°C° 0.5 mm 4 mps 739 mmHg 78%
    18:00 +16°C° 0.2 mm 3 mps 739 mmHg 82%
    19:00 +14°C° 0.2 mm 3 mps 739 mmHg 86%
    20:00 +14°C° 0.2 mm 2 mps 739 mmHg 90%
    21:00 +13°C° 0 mm 2 mps 739 mmHg 91%
    22:00 +12°C° 0 mm 2 mps 739 mmHg 92%
    23:00 +10°C° 0 mm 2 mps 739 mmHg 93%

    Tomorrow, 25 June, Monday

    Time Temperature Precipitation Wind Pressure Humidity
    00:00 +10°C° 0 mm 2 mps 740 mmHg 93%
    01:00 +9°C° 0 mm 2 mps 740 mmHg 94%
    02:00 +9°C° 0 mm 2 mps 740 mmHg 94%
    03:00 +9°C° 0 mm 2 mps 740 mmHg 94%
    04:00 +9°C° 0 mm 2 mps 740 mmHg 95%
    05:00 +9°C° 0 mm 2 mps 740 mmHg 95%
    06:00 +10°C° 0 mm 2 mps 740 mmHg 93%
    07:00 +13°C° 0 mm 2 mps 741 mmHg 90%
    08:00 +14°C° 0 mm 2 mps 741 mmHg 88%
    09:00 +15°C° 0.1 mm 2 mps 741 mmHg 84%
    10:00 +16°C° 0.1 mm 2 mps 741 mmHg 80%
    11:00 +17°C° 0.1 mm 2 mps 741 mmHg 76%
    12:00 +18°C° 0.1 mm 2 mps 741 mmHg 72%
    13:00 +19°C° 0.1 mm 2 mps 741 mmHg 68%
    14:00 +20°C° 0.1 mm 2 mps 741 mmHg 64%
    15:00 +20°C° 0.3 mm 2 mps 741 mmHg 64%
    16:00 +21°C° 0.3 mm 1 mps 741 mmHg 65%
    17:00 +21°C° 0.3 mm 1 mps 741 mmHg 66%
    18:00 +20°C° 0.3 mm 1 mps 741 mmHg 71%
    19:00 +19°C° 0.3 mm 1 mps 741 mmHg 76%
    20:00 +16°C° 0.3 mm 1 mps 741 mmHg 82%
    21:00 +15°C° 0.2 mm 1 mps 742 mmHg 84%
    22:00 +14°C° 0.2 mm 1 mps 742 mmHg 87%
    23:00 +13°C° 0.2 mm 1 mps 742 mmHg 89%

    Day after tomorrow, 26 June, Tuesday

    Time Temperature Precipitation Wind Pressure Humidity
    00:00 +13°C° 0 mm 1 mps 742 mmHg 90%
    01:00 +12°C° 0 mm 1 mps 742 mmHg 90%
    02:00 +11°C° 0 mm 0 mps 742 mmHg 91%
    03:00 +11°C° 0 mm 0 mps 742 mmHg 91%
    04:00 +11°C° 0 mm 0 mps 742 mmHg 91%
    05:00 +11°C° 0 mm 0 mps 742 mmHg 91%
    06:00 +12°C° 0 mm 0 mps 742 mmHg 88%
    07:00 +15°C° 0 mm 1 mps 742 mmHg 85%
    08:00 +16°C° 0 mm 1 mps 742 mmHg 82%
    09:00 +19°C° 0.2 mm 1 mps 742 mmHg 76%
    10:00 +20°C° 0.2 mm 1 mps 742 mmHg 70%
    11:00 +21°C° 0.2 mm 1 mps 742 mmHg 64%
    12:00 +22°C° 0.7 mm 1 mps 741 mmHg 64%
    13:00 +21°C° 0.7 mm 2 mps 741 mmHg 64%
    14:00 +21°C° 0.7 mm 2 mps 741 mmHg 64%
    15:00 +21°C° 0.4 mm 2 mps 741 mmHg 64%
    16:00 +22°C° 0.4 mm 1 mps 741 mmHg 64%
    17:00 +22°C° 0.4 mm 1 mps 740 mmHg 64%
    18:00 +21°C° 0.5 mm 1 mps 740 mmHg 70%
    19:00 +19°C° 0.5 mm 1 mps 740 mmHg 77%
    20:00 +18°C° 0.5 mm 1 mps 740 mmHg 83%
    21:00 +16°C° 0 mm 1 mps 740 mmHg 85%
    22:00 +15°C° 0 mm 1 mps 740 mmHg 86%
    23:00 +14°C° 0 mm 1 mps 740 mmHg 88%

    27 June, Wednesday

    Time Temperature Precipitation Wind Pressure Humidity
    00:00 +13°C° 0 mm 1 mps 740 mmHg 89%
    01:00 +13°C° 0 mm 1 mps 740 mmHg 90%
    02:00 +12°C° 0 mm 1 mps 740 mmHg 91%
    03:00 +12°C° 0 mm 1 mps 740 mmHg 91%
    04:00 +12°C° 0 mm 1 mps 740 mmHg 92%
    05:00 +12°C° 0 mm 1 mps 740 mmHg 93%
    06:00 +13°C° 0 mm 1 mps 740 mmHg 91%
    07:00 +15°C° 0 mm 1 mps 740 mmHg 89%
    08:00 +16°C° 0 mm 2 mps 740 mmHg 87%
    09:00 +17°C° 0.1 mm 2 mps 740 mmHg 81%
    10:00 +19°C° 0.1 mm 2 mps 740 mmHg 76%
    11:00 +20°C° 0.1 mm 2 mps 740 mmHg 71%
    12:00 +20°C° 0.4 mm 3 mps 740 mmHg 71%
    13:00 +21°C° 0.4 mm 3 mps 739 mmHg 71%
    14:00 +21°C° 0.4 mm 3 mps 739 mmHg 71%
    15:00 +21°C° 0.6 mm 3 mps 739 mmHg 76%
    16:00 +20°C° 0.6 mm 3 mps 739 mmHg 80%
    17:00 +19°C° 0.6 mm 3 mps 739 mmHg 85%
    18:00 +19°C° 0.4 mm 3 mps 739 mmHg 88%
    19:00 +18°C° 0.4 mm 3 mps 738 mmHg 91%
    20:00 +17°C° 0.4 mm 3 mps 738 mmHg 94%
    21:00 +16°C° 0.2 mm 3 mps 738 mmHg 95%
    22:00 +16°C° 0.2 mm 3 mps 738 mmHg 95%
    23:00 +16°C° 0.2 mm 3 mps 737 mmHg 96%

    28 June, Thursday

    Time Temperature Precipitation Wind Pressure Humidity
    00:00 +16°C° 0.7 mm 3 mps 737 mmHg 96%
    01:00 +16°C° 0.7 mm 3 mps 736 mmHg 97%
    02:00 +16°C° 0.7 mm 3 mps 735 mmHg 97%
    03:00 +15°C° 4.7 mm 4 mps 734 mmHg 97%
    04:00 +15°C° 4.7 mm 5 mps 734 mmHg 97%
    05:00 +16°C° 4.7 mm 6 mps 733 mmHg 98%
    06:00 +16°C° 3.3 mm 6 mps 732 mmHg 97%
    07:00 +17°C° 3.3 mm 6 mps 731 mmHg 97%
    08:00 +17°C° 3.3 mm 6 mps 731 mmHg 96%
    09:00 +19°C° 0.7 mm 5 mps 731 mmHg 95%
    10:00 +19°C° 0.7 mm 5 mps 731 mmHg 95%
    11:00 +20°C° 0.7 mm 5 mps 730 mmHg 94%
    12:00 +20°C° 1.5 mm 5 mps 730 mmHg 90%
    13:00 +20°C° 1.5 mm 4 mps 730 mmHg 86%
    14:00 +21°C° 1.5 mm 4 mps 731 mmHg 82%
    15:00 +21°C° 0.3 mm 5 mps 731 mmHg 79%
    16:00 +20°C° 0.3 mm 5 mps 731 mmHg 77%
    17:00 +20°C° 0.3 mm 5 mps 731 mmHg 75%
    18:00 +19°C° 0 mm 4 mps 731 mmHg 79%
    19:00 +19°C° 0 mm 3 mps 731 mmHg 82%
    20:00 +18°C° 0 mm 3 mps 731 mmHg 86%
    21:00 +17°C° 0 mm 3 mps 732 mmHg 89%
    22:00 +16°C° 0 mm 3 mps 732 mmHg 91%
    23:00 +14°C° 0 mm 3 mps 732 mmHg 94%

    29 June, Friday

    Time Temperature Precipitation Wind Pressure Humidity
    00:00 +15°C° 0 mm 2 mps 732 mmHg 94%
    01:00 +15°C° 0 mm 2 mps 732 mmHg 94%
    02:00 +14°C° 0 mm 2 mps 732 mmHg 94%
    03:00 +14°C° 0 mm 2 mps 732 mmHg 95%
    04:00 +14°C° 0 mm 2 mps 733 mmHg 95%
    05:00 +14°C° 0 mm 2 mps 733 mmHg 95%
    06:00 +14°C° 0 mm 3 mps 733 mmHg 89%
    07:00 +17°C° 0 mm 3 mps 733 mmHg 83%
    08:00 +19°C° 0 mm 4 mps 732 mmHg 78%
    09:00 +20°C° 0 mm 3 mps 733 mmHg 73%
    10:00 +21°C° 0 mm 3 mps 733 mmHg 68%
    11:00 +22°C° 0 mm 3 mps 733 mmHg 64%
    12:00 +24°C° 0 mm 3 mps 732 mmHg 62%
    13:00 +24°C° 0 mm 3 mps 732 mmHg 60%
    14:00 +25°C° 0 mm 3 mps 732 mmHg 58%
    15:00 +24°C° 0 mm 3 mps 732 mmHg 59%
    16:00 +24°C° 0 mm 3 mps 732 mmHg 61%
    17:00 +24°C° 0 mm 3 mps 732 mmHg 62%
    18:00 +22°C° 0 mm 3 mps 732 mmHg 69%
    19:00 +20°C° 0 mm 2 mps 732 mmHg 75%
    20:00 +19°C° 0 mm 2 mps 732 mmHg 81%
    21:00 +18°C° 0 mm 2 mps 732 mmHg 83%
    22:00 +17°C° 0 mm 3 mps 732 mmHg 86%
    23:00 +16°C° 0 mm 3 mps 732 mmHg 88%
    Show more